User: anonymous   Login
Location: Clatteringshaws Loch
(55.0508°N, 4.2860°W)
Time: 22:25:40
(UTC+01:00)
Language:

Cosmos 2221 Rocket - Orbit

View from above orbital plane
View from above orbital plane
View from above satellite
View from above satellite

Ground track
Ground track

The orbit data is extracted from the following two-line orbital elements,

1 22237U 92080B   15245.95853005 +.00000152 +00000-0 +17804-4 0  9999
2 22237 082.5145 005.3182 0019855 177.1106 303.0895 14.78173285226849
Epoch (UTC): 02 September 2015 23:00:16
Eccentricity: 0.0019855
inclination: 82.5145°
perigee height: 621 km
apogee height: 649 km
right ascension of ascending node: 5.3182°
argument of perigee: 177.1106°
revolutions per day: 14.78173285
mean anomaly at epoch: 303.0895°
orbit number at epoch: 22684

The dashed part of the orbit path shows where the satellite is in the earth's shadow,  

DLR